This demonstration page uses our WeatherBlox Daily Observations layout. Learn more.

38.89511, -77.03637

Hourly Observations for July 11, 2017

Temp ( °F °C ) Dew Point ( °F °C ) Humidity (%) Winds ( mph kmh ) Pressure ( in mb ) Visibility ( mi km ) Precip ( " mm )
12:52 am 00:52 Cloudy 82 27.8 70 21.1 67 67 SSW 15 24 29.94 1014 10 16.09344 0 0
1:52 am 01:52 Cloudy 80 26.7 69 20.6 69 69 SW 7 11 29.94 1014 10 16.09344 0 0
2:52 am 02:52 Mostly Cloudy 78 25.6 68 20 71 71 SW 3 6 29.94 1014 10 16.09344 0 0
3:52 am 03:52 Mostly Cloudy 77 25 69 20.6 77 77 SSW 6 9 29.94 1014 10 16.09344 0 0
4:52 am 04:52 Clear 75 23.9 69 20.6 82 82 SW 6 9 29.94 1014 10 16.09344 0 0
5:52 am 05:52 Mostly Cloudy 76 24.4 72 22.2 88 88 SW 7 11 29.94 1014 10 16.09344 0 0
6:52 am 06:52 Cloudy 76 24.4 73 22.8 91 91 SSW 6 9 29.97 1015 10 16.09344 0 0
7:52 am 07:52 Mostly Cloudy 78 25.6 73 22.8 85 85 SSW 9 15 29.97 1015 10 16.09344 0 0
8:52 am 08:52 Mostly Cloudy 81 27.2 73 22.8 77 77 SSW 7 11 29.97 1015 10 16.09344 0 0
9:52 am 09:52 Mostly Cloudy 83 28.3 76 24.4 79 79 S 10 17 29.97 1015 10 16.09344 0 0
10:52 am 10:52 Cloudy 85 29.4 75 23.9 72 72 S 10 17 29.97 1015 10 16.09344 0 0
11:52 am 11:52 Cloudy 85 29.4 73 22.8 68 68 S 12 19 29.97 1015 10 16.09344 0 0
12:52 pm 12:52 Cloudy 85 29.4 72 22.2 65 65 WSW 8 13 29.97 1015 10 16.09344 0 0
1:52 pm 13:52 Mostly Cloudy 85 29.4 74 23.3 70 70 SW 7 11 29.97 1015 10 16.09344 0.001 0.001
2:52 pm 14:52 Partly Cloudy 89 31.7 72 22.2 57 57 WSW 9 15 29.97 1015 10 16.09344 0 0
3:52 pm 15:52 Partly Cloudy 91 32.8 69 20.6 49 49 SW 14 22 29.94 1014 10 16.09344 0 0
4:52 pm 16:52 Mostly Cloudy 92 33.3 67 19.4 44 44 SW 15 24 29.94 1014 10 16.09344 0 0
5:52 pm 17:52 Mostly Cloudy 90 32.2 67 19.4 47 47 SW 15 24 29.94 1014 10 16.09344 0 0
6:52 pm 18:52 Mostly Cloudy 89 31.7 69 20.6 52 52 SW 12 19 29.94 1014 10 16.09344 0 0
7:52 pm 19:52 Mostly Cloudy 87 30.6 68 20 53 53 WSW 9 15 29.94 1014 10 16.09344 0 0
8:52 pm 20:52 Mostly Cloudy 86 30 69 20.6 57 57 Calm 29.94 1014 10 16.09344 0 0
9:52 pm 21:52 Mostly Cloudy 83 28.3 73 22.8 72 72 S 3 6 29.97 1015 10 16.09344 0 0
10:52 pm 22:52 Cloudy 82 27.8 74 23.3 77 77 S 7 11 29.97 1015 10 16.09344 0 0
11:52 pm 23:52 Mostly Cloudy 81 27.2 70 21.1 69 69 SSW 5 7 29.97 1015 10 16.09344 0 0

Powered by AerisWeather